UPSVAC Airport Information Service

Phoenix Sky Harbor International Airport

ICAO: KPHX Country: United States
Latitude: 33.4343 Longitude: -112.011
Latest Arrival : UPSJUMP (KABQ-KPHX) Latest Departure : UPS1180 (KPHX-KSDF)


WX CaptureLIVE
Data provided by noaa.gov | Fetched at 17:11:03

METAR : KPHX 281651Z VRB03KT 10SM FEW065 FEW180 FEW250 33/17 A2998 RMK AO2 SLP132 T03330172

TAF : KPHX 281446Z 2815/2918 VRB04KT P6SM FEW150 SCT250 FM281900 28006KT P6SM FEW150 SCT250 FM290500 10007KT P6SM FEW150 SCT250


Runway Data for KPHX
Data provided by openaviationdata.com

Runway ID Mag Var Hdg Length Elevation Surface ILS Freq ILS Id ILS Slope
07L 12 78° 10287 ft 1135 ft Asphalt 111.5 IPHX 3
07R 12 78° 7791 ft 1135 ft Concrete 110.75 IAHA 3
8 12 78° 11477 ft 1135 ft Concrete 111.75 ISYQ 3
25L 12 258° 7791 ft 1135 ft Concrete 110.75 IRJG 3
25R 12 258° 10287 ft 1135 ft Asphalt -- -- --
26 12 258° 11477 ft 1135 ft Concrete 111.75 ICWJ 3

Phoenix Sky Harbor International Airport, United States
Use only for reference purposes



Not for navigational purposes.